[[{"header":{"parameterUnit":"m.s-1","parameterCategory":1,"la1":30.2991,"la2":30.254,"lo1":-89.0895,"lo2":-89.0444,"dy":0.0017,"dx":0.0017,"nx":28,"ny":28,"refTime":"2023-08-04T03:00:00:Z","depth":0,"parameterNumber":2,"parameterNumberName":"U-component_of_WINDS"},"data":[0,0,0,0,0,0,0,0,0,0,0,0,0,0,0,0,0,0,0,0,0,0,0,0,0,0,0,0,0,0,0,0,0,0,0,0,0,0,0,0,0,0,0,0,0,0,0,0,0,0,0,0,0,0,0,0,0,0,3.846,3.8461,0,3.8636,3.8638,3.864,3.8614,3.8611,3.8608,3.8605,3.8788,3.8796,3.8803,0,0,0,0,0,0,0,0,0,0,0,0,0,3.8102,3.8109,3.8459,3.8462,3.8464,3.8636,3.8638,3.864,3.8615,3.8611,3.8607,3.8604,3.8786,3.8795,3.8804,0,0,0,0,0,0,0,0,0,0,0,0,0,3.8266,3.8111,3.8459,3.8472,3.8474,3.8635,3.8638,3.8641,3.8615,3.8611,3.8606,3.8602,3.8783,3.8794,3.8805,3.8966,0,0,3.884,3.8845,0,0,0,0,0,0,0,0,3.8257,3.8279,3.8467,3.8471,3.8474,3.8598,3.8579,3.875,3.8617,3.8562,3.8605,3.86,3.8729,3.8745,3.8788,3.8974,3.8982,3.8842,3.8848,3.8853,3.8857,0,0,0,0,0,0,0,3.8246,3.8272,3.8529,3.847,3.8475,3.8469,3.8488,3.8612,3.8668,3.8566,3.8565,3.8586,3.873,3.8777,3.8792,3.8985,3.8841,3.8851,3.8858,3.8863,3.9313,3.9318,0,0,0,0,0,0,3.823,3.8262,3.8524,3.8535,3.8352,3.8479,3.85,3.8563,3.8667,3.8678,3.859,3.8584,3.8759,3.8778,3.8798,3.8993,3.8853,3.8864,3.8871,3.9308,3.9314,3.9319,0,0,0,0,0,0,3.8223,3.8254,3.8517,3.8398,3.8431,3.849,3.8562,3.8569,3.8615,3.8685,3.8695,3.8627,3.8756,3.8782,3.8924,3.8999,3.8869,3.888,3.9302,3.931,3.9317,3.9384,0,0,0,0,0,0,3.8213,3.8251,3.8312,3.84,3.8438,3.8639,3.8566,3.8576,3.8635,3.863,3.8722,3.8733,3.8755,3.8907,3.8936,3.9013,3.8889,3.9295,3.9305,3.9314,3.9376,3.9393,3.9408,0,0,0,0,0,3.82,3.8325,3.8315,3.8347,3.8515,3.8643,3.8665,3.8687,3.8641,3.8703,3.8748,3.873,3.8986,3.8922,3.8954,3.9035,3.9291,3.9302,3.9313,3.9368,3.939,3.9408,0,0,0,0,0,0,3.8245,3.8336,3.8327,3.8483,3.8556,3.8639,3.8718,3.8709,3.8797,3.8788,3.8812,3.8833,3.8978,3.9021,3.8947,3.9196,3.9132,3.9151,3.9163,3.9184,3.92,3.9187,3.8898,0,0,0,0,0,3.8273,3.8369,3.8444,3.8575,3.8611,3.8659,3.8715,3.8726,3.8802,3.8833,3.8888,3.8963,3.9061,3.9125,3.9218,3.9381,3.9402,3.9453,3.947,3.9483,3.9498,3.9589,3.9613,3.9357,3.9357,3.9356,0,0,3.8332,3.8394,3.8453,3.8585,3.8643,3.8743,3.8684,3.8793,3.8867,3.885,3.8987,3.9031,3.9116,3.927,3.9341,3.931,3.9574,3.9497,3.9507,3.9516,3.9603,3.9627,3.9649,3.9364,3.9363,3.9362,0,0,3.8491,3.8547,3.8662,3.8721,3.8808,3.8839,3.8867,3.8951,3.8979,3.9117,3.9107,3.9196,3.9364,3.9425,3.9479,3.9662,3.9649,3.9692,3.9777,3.9865,3.9885,3.9903,3.9969,3.9993,3.9707,3.9707,3.9707,0,3.8554,3.8703,3.8723,3.8833,3.8892,3.888,3.8997,3.9053,3.9167,3.9209,3.9173,3.9383,3.944,3.9609,3.9653,3.9697,3.973,3.9681,3.9881,3.9899,3.9916,3.9979,4.0004,3.9712,3.9711,3.9711,3.971,0,3.8776,3.888,3.8963,3.9073,3.9141,3.9254,3.9292,3.9359,3.9364,3.9398,3.954,3.9608,3.9715,3.9756,3.9762,3.9926,3.9905,3.9875,3.9811,3.9945,4.0005,4.0029,3.9718,3.9717,3.9715,3.9714,0,0,3.8969,3.9088,3.9118,3.9168,3.9264,3.9345,3.9458,3.9562,3.962,3.9699,3.9795,3.9937,3.991,3.997,3.9983,4.0061,4.0202,4.0021,4.0024,4.0053,4.0388,4.041,4.0438,4.0194,4.0199,4.0203,4.0381,0,3.9138,3.9336,3.9358,3.9536,3.9633,3.9623,3.9721,3.9791,3.9827,3.9915,3.9954,4.0055,4.0011,4.0048,4.0124,4.0169,4.027,4.0156,4.0285,4.0289,4.0264,4.0469,4.0493,4.0658,4.0404,4.0408,4.0411,0,3.9361,3.9446,3.9633,3.9716,3.9757,3.9846,3.9943,4.0027,4.0107,4.0127,4.0195,4.0198,4.0316,4.0247,4.041,4.0332,4.0386,4.0416,4.0423,4.0437,4.0359,4.0489,4.0711,4.0736,4.0448,4.0445,4.0443,0,3.9484,3.9645,3.9778,3.9821,3.992,3.9983,4.0027,4.0102,4.0164,4.025,4.029,4.0389,4.0443,4.052,4.0549,4.0496,4.0712,4.0645,4.0733,4.0732,4.0779,4.0776,4.1014,4.0813,4.0812,4.0812,4.0811,0,3.967,3.9786,3.9834,3.9916,4.0046,4.0069,4.0197,4.0239,4.0306,4.0396,4.0394,4.0479,4.0513,4.0605,4.0629,4.0761,4.0785,4.0806,4.0811,4.0807,4.0804,4.0843,4.0832,4.0818,4.0817,4.0816,4.0815,0,3.9829,3.9867,4.0011,4.0093,4.0117,4.0209,4.0279,4.0359,4.0393,4.0508,4.0537,4.0591,4.0698,4.0735,4.0866,4.0882,4.1036,4.1031,4.1009,4.101,4.1096,4.1088,4.1368,4.1406,4.1179,4.1181,4.1183,0,3.9946,4.0035,4.0126,4.0187,4.0233,4.033,4.0393,4.042,4.0486,4.0583,4.0651,4.0758,4.0844,4.1016,4.1068,4.1168,4.1166,4.1257,4.1181,4.1174,4.1168,4.1163,4.1172,4.1271,4.1274,4.1276,4.1277,0,4.0151,4.0164,4.0254,4.0351,4.0426,4.0504,4.0579,4.0629,4.0667,4.0741,4.085,4.0917,4.105,4.1156,4.1258,4.1305,4.1299,4.1301,4.1327,4.1323,4.1307,4.1318,4.1048,4.1294,4.1293,4.1291,4.1291,4.129,4.0293,4.0371,4.0448,4.0548,4.0608,4.0678,4.0757,4.0801,4.0892,4.1002,4.1012,4.1131,4.1209,4.1345,4.1397,4.149,4.1465,4.1502,4.1511,4.152,4.1527,4.1291,4.1509,4.1508,4.1508,4.1507,4.1507,0,4.0498,4.0546,4.0638,4.0743,4.0823,4.0808,4.0891,4.0958,4.1062,4.1135,4.122,4.1346,4.1448,4.1508,4.1611,4.1675,4.1674,4.1701,4.1697,4.1708,4.1543,4.1511,4.17,4.17,4.17,4.17,4.1699,4.1699,4.0613,4.0745,4.0768,4.093,4.0978,4.1093,4.1141,4.1207,4.1265,4.1405,4.149,4.1528,4.1596,4.1704,4.1799,4.1813,4.1852,4.1881,4.1894,4.1739,4.172,4.1701,4.167,4.1889,4.189,4.2051,4.2053,4.2054]},{"header":{"parameterUnit":"m.s-1","parameterCategory":1,"la1":30.2991,"la2":30.254,"lo1":-89.0895,"lo2":-89.0444,"dy":0.0017,"dx":0.0017,"nx":28,"ny":28,"refTime":"2023-08-04T03:00:00:Z","depth":0,"parameterNumber":3,"parameterNumberName":"V-component_of_WINDS"},"data":[0,0,0,0,0,0,0,0,0,0,0,0,0,0,0,0,0,0,0,0,0,0,0,0,0,0,0,0,0,0,0,0,0,0,0,0,0,0,0,0,0,0,0,0,0,0,0,0,0,0,0,0,0,0,0,0,0,0,-1.823,-1.8231,0,-1.8301,-1.8302,-1.8302,-1.8318,-1.8318,-1.8317,-1.8317,-1.8388,-1.839,-1.8392,0,0,0,0,0,0,0,0,0,0,0,0,0,-1.8109,-1.8111,-1.823,-1.8231,-1.8232,-1.8301,-1.8302,-1.8303,-1.8318,-1.8318,-1.8317,-1.8316,-1.8387,-1.839,-1.8393,0,0,0,0,0,0,0,0,0,0,0,0,0,-1.8168,-1.8111,-1.823,-1.8248,-1.8251,-1.8301,-1.8302,-1.8303,-1.8318,-1.8318,-1.8317,-1.8316,-1.8386,-1.839,-1.8393,-1.843,0,0,-1.8404,-1.8405,0,0,0,0,0,0,0,0,-1.8165,-1.8173,-1.8245,-1.8247,-1.825,-1.83,-1.8285,-1.8345,-1.8319,-1.8293,-1.8317,-1.8316,-1.8359,-1.8365,-1.838,-1.8433,-1.8436,-1.8404,-1.8406,-1.8408,-1.8409,0,0,0,0,0,0,0,-1.8161,-1.817,-1.8258,-1.8246,-1.8249,-1.8253,-1.826,-1.8296,-1.8329,-1.8295,-1.8296,-1.8304,-1.836,-1.8376,-1.8381,-1.8437,-1.8404,-1.8407,-1.8409,-1.8411,-1.8524,-1.8525,0,0,0,0,0,0,-1.8154,-1.8166,-1.8256,-1.826,-1.8205,-1.8255,-1.8264,-1.8285,-1.8329,-1.8335,-1.8305,-1.8305,-1.8371,-1.8377,-1.8384,-1.843,-1.8408,-1.8411,-1.8413,-1.8524,-1.8525,-1.8526,0,0,0,0,0,0,-1.8151,-1.8162,-1.8253,-1.8214,-1.8226,-1.8258,-1.8281,-1.8286,-1.8302,-1.8336,-1.8342,-1.8315,-1.837,-1.8379,-1.8418,-1.8432,-1.8413,-1.8416,-1.8522,-1.8524,-1.8525,-1.8521,0,0,0,0,0,0,-1.8147,-1.8161,-1.8175,-1.8214,-1.8228,-1.8287,-1.8282,-1.8288,-1.8308,-1.8309,-1.8348,-1.8353,-1.837,-1.8413,-1.8422,-1.8437,-1.8419,-1.8521,-1.8523,-1.8525,-1.852,-1.8522,-1.8524,0,0,0,0,0,-1.8143,-1.8171,-1.8176,-1.8186,-1.8247,-1.8287,-1.8295,-1.8315,-1.831,-1.8324,-1.8346,-1.8352,-1.843,-1.8417,-1.8427,-1.8443,-1.8521,-1.8523,-1.8525,-1.8519,-1.8522,-1.8524,0,0,0,0,0,0,-1.8132,-1.8176,-1.8182,-1.8223,-1.8252,-1.829,-1.8309,-1.8317,-1.8346,-1.8346,-1.8368,-1.8377,-1.8415,-1.8433,-1.8418,-1.8481,-1.8475,-1.8479,-1.8467,-1.847,-1.8472,-1.8466,-1.8422,0,0,0,0,0,-1.8135,-1.8164,-1.8201,-1.8234,-1.8248,-1.8276,-1.8295,-1.8307,-1.8337,-1.8349,-1.8374,-1.8402,-1.8433,-1.8453,-1.8483,-1.8524,-1.8532,-1.854,-1.8542,-1.8543,-1.8546,-1.8568,-1.8572,-1.8532,-1.8532,-1.8532,0,0,-1.814,-1.8168,-1.8185,-1.8233,-1.8256,-1.8286,-1.8286,-1.8318,-1.834,-1.8354,-1.8392,-1.8411,-1.8445,-1.8485,-1.8504,-1.8501,-1.8559,-1.8546,-1.8546,-1.8549,-1.8571,-1.8574,-1.8578,-1.8534,-1.8533,-1.8533,0,0,-1.8165,-1.8189,-1.8219,-1.8242,-1.8278,-1.8296,-1.8303,-1.8341,-1.8354,-1.8393,-1.8404,-1.8431,-1.8484,-1.8507,-1.8526,-1.856,-1.8566,-1.8569,-1.8579,-1.86,-1.8603,-1.8606,-1.8618,-1.8621,-1.8572,-1.8572,-1.8572,0,-1.8166,-1.8212,-1.8233,-1.8264,-1.8285,-1.8299,-1.8329,-1.8351,-1.8394,-1.8408,-1.8405,-1.8472,-1.8495,-1.8541,-1.8549,-1.8564,-1.8572,-1.8564,-1.8601,-1.8604,-1.8607,-1.8618,-1.8623,-1.8572,-1.8572,-1.8572,-1.8572,0,-1.8212,-1.8244,-1.8264,-1.8305,-1.8328,-1.8359,-1.8384,-1.8405,-1.8416,-1.8434,-1.8474,-1.8503,-1.8539,-1.8551,-1.8562,-1.8598,-1.8596,-1.8597,-1.8591,-1.8611,-1.8622,-1.8626,-1.8572,-1.8572,-1.8572,-1.8572,0,0,-1.8231,-1.8284,-1.8291,-1.831,-1.8351,-1.8375,-1.8407,-1.8442,-1.8459,-1.8489,-1.8515,-1.856,-1.8561,-1.8583,-1.8596,-1.8615,-1.864,-1.8614,-1.8615,-1.8617,-1.8681,-1.8679,-1.8683,-1.8645,-1.8646,-1.8646,-1.8677,0,-1.826,-1.8316,-1.8336,-1.8382,-1.8411,-1.8426,-1.8453,-1.8481,-1.8499,-1.8527,-1.8547,-1.8578,-1.8578,-1.8591,-1.861,-1.8632,-1.8652,-1.8631,-1.8669,-1.867,-1.8659,-1.8689,-1.8687,-1.8715,-1.8682,-1.8683,-1.8683,0,-1.8301,-1.8331,-1.838,-1.8417,-1.843,-1.8454,-1.8488,-1.8514,-1.8546,-1.8558,-1.8582,-1.8595,-1.8628,-1.862,-1.8666,-1.8651,-1.8668,-1.8681,-1.8682,-1.8686,-1.8677,-1.8692,-1.8725,-1.8728,-1.869,-1.869,-1.8689,0,-1.8308,-1.8362,-1.8398,-1.8414,-1.8458,-1.8474,-1.8493,-1.8524,-1.8544,-1.8575,-1.8588,-1.8622,-1.864,-1.8665,-1.8686,-1.8679,-1.873,-1.8725,-1.874,-1.874,-1.8749,-1.8748,-1.8784,-1.8762,-1.8762,-1.8762,-1.8762,0,-1.8338,-1.8367,-1.8402,-1.8424,-1.8457,-1.848,-1.8512,-1.8532,-1.856,-1.8586,-1.8601,-1.8625,-1.8652,-1.8679,-1.8696,-1.8731,-1.8739,-1.875,-1.8754,-1.8748,-1.8746,-1.8758,-1.8757,-1.8763,-1.8763,-1.8762,-1.8762,0,-1.8351,-1.8376,-1.8416,-1.8455,-1.8465,-1.8488,-1.8521,-1.8543,-1.8562,-1.8595,-1.8604,-1.8635,-1.8668,-1.8692,-1.8735,-1.8746,-1.8783,-1.8788,-1.8772,-1.8774,-1.8788,-1.8786,-1.8832,-1.8839,-1.8813,-1.8813,-1.8814,0,-1.8368,-1.8391,-1.8432,-1.8451,-1.847,-1.85,-1.852,-1.8544,-1.8565,-1.8603,-1.862,-1.8655,-1.8683,-1.8736,-1.8762,-1.8795,-1.8799,-1.8813,-1.8804,-1.8798,-1.8799,-1.8797,-1.8799,-1.8814,-1.8814,-1.8814,-1.8815,0,-1.8395,-1.8406,-1.8435,-1.8469,-1.8494,-1.8521,-1.8549,-1.8564,-1.8593,-1.8615,-1.865,-1.8672,-1.8716,-1.875,-1.8785,-1.8805,-1.8814,-1.8817,-1.8823,-1.8816,-1.8806,-1.8811,-1.8775,-1.8816,-1.8816,-1.8816,-1.8816,-1.8816,-1.841,-1.8431,-1.8463,-1.8495,-1.8519,-1.8545,-1.8567,-1.859,-1.8619,-1.8656,-1.8669,-1.8704,-1.8736,-1.8784,-1.8804,-1.8832,-1.8832,-1.8839,-1.8841,-1.8843,-1.8842,-1.8803,-1.8839,-1.8839,-1.8839,-1.8839,-1.8839,0,-1.8437,-1.8458,-1.8488,-1.8526,-1.8552,-1.8559,-1.8591,-1.8611,-1.8642,-1.8671,-1.8699,-1.8738,-1.8771,-1.88,-1.8834,-1.8851,-1.8856,-1.8859,-1.8858,-1.8862,-1.8841,-1.8832,-1.8854,-1.8854,-1.8854,-1.8854,-1.8854,-1.8854,-1.8453,-1.8489,-1.8504,-1.8551,-1.8573,-1.8608,-1.8625,-1.8649,-1.8671,-1.8715,-1.8742,-1.8761,-1.879,-1.8826,-1.8857,-1.8864,-1.8876,-1.8877,-1.8886,-1.8865,-1.8863,-1.8862,-1.8854,-1.888,-1.888,-1.8905,-1.8905,-1.8905]}]]